DL9GJ-4 Weather Reports


time (UTC)temp
F
wind
direction
speed
knots
gust
knots
rain 1hr
in
rain 24hr
in
rain mn
in
humidity
%
barometer
mb
20260507112552 54 159 2.6 2.6 0.00 0.03 0.00 42 1012.0
20260507111954 53 228 1.7 2.6 0.00 0.03 0.00 43 1012.0
20260507111351 53 192 2.6 2.6 0.00 0.03 0.00 42 1012.0
20260507110748 53 222 2.6 2.6 0.00 0.03 0.00 43 1013.0
20260507105547 53 216 0.0 1.7 0.00 0.03 0.00 54 1013.0
20260507104347 51 140 2.6 2.6 0.00 0.03 0.00 47 1013.0
20260507103747 51 188 2.6 2.6 0.00 0.03 0.00 47 1013.0
20260507100746 51 194 2.6 2.6 0.00 0.03 0.00 60 1013.0
20260507095547 51 279 2.6 2.6 0.00 0.03 0.00 71 1013.0
20260507094946 50 223 2.6 2.6 0.00 0.03 0.00 71 1013.0
20260507094346 50 275 2.6 3.5 0.00 0.03 0.00 73 1013.0
20260507093748 50 217 2.6 2.6 0.00 0.03 0.00 76 1013.0
20260507093146 50 249 2.6 2.6 0.00 0.03 0.00 76 1013.0
20260507092543 50 207 1.7 1.7 0.00 0.03 0.00 76 1013.0
20260507091943 50 216 1.7 1.7 0.00 0.03 0.00 77 1012.0
20260507091341 49 226 0.0 2.6 0.00 0.03 0.00 76 1012.0
20260507090140 48 224 0.0 1.7 0.03 0.03 0.00 77 1012.0
20260507090135 48 224 0.0 1.7 0.03 0.03 0.00 77 1012.0
20260507085542 48 194 2.6 2.6 0.03 0.03 0.00 76 1012.0
20260507085534 48 194 2.6 2.6 0.03 0.03 0.00 76 1012.0
20260507084932 48 220 2.6 2.6 0.03 0.03 0.00 76 1012.0
20260507084329 48 235 1.7 1.7 0.03 0.03 0.00 76 1012.0
20260507083727 47 235 0.0 2.6 0.03 0.03 0.00 75 1012.0
20260507083126 47 234 2.6 2.6 0.03 0.03 0.00 75 1012.0
20260507082536 47 234 1.7 1.7 0.03 0.03 0.00 75 1012.0
20260507082527 47 234 1.7 1.7 0.03 0.03 0.00 75 1012.0
20260507081651 47 235 1.7 2.6 0.03 0.03 0.00 75 1012.0
20260507081325 47 235 1.7 2.6 0.03 0.03 0.00 75 1012.0
20260507080724 47 235 1.7 1.7 0.03 0.03 0.00 75 1012.0
20260507080125 47 184 2.6 2.6 0.03 0.03 0.00 76 1012.0
20260507075524 47 185 0.0 0.0 0.03 0.03 0.00 75 1012.0
20260507074324 47 196 3.5 3.5 0.03 0.03 0.00 76 1012.0
20260507073724 46 186 3.5 3.5 0.03 0.03 0.00 76 1012.0
20260507073124 46 210 2.6 2.6 0.03 0.03 0.00 75 1012.0
20260507072523 46 162 2.6 3.5 0.03 0.03 0.00 74 1012.0
20260507070124 46 203 0.0 2.6 0.00 0.03 0.00 74 1012.0
20260507064324 46 187 2.6 2.6 0.00 0.03 0.00 73 1012.0
20260507063721 46 158 2.6 3.5 0.00 0.03 0.00 72 1012.0
20260507063117 46 193 2.6 2.6 0.00 0.03 0.00 72 1012.0
20260507062516 45 208 2.6 4.3 0.00 0.03 0.00 72 1012.0
20260507061314 45 247 5.2 5.2 0.00 0.03 0.00 71 1012.0
20260507060715 45 166 2.6 2.6 0.00 0.03 0.00 70 1012.0
20260507060110 46 218 5.2 5.2 0.00 0.03 0.00 69 1012.0
20260507055507 46 194 3.5 3.5 0.00 0.03 0.00 68 1012.0
20260507054905 46 195 4.3 4.3 0.00 0.03 0.00 67 1011.0
20260507054304 46 176 2.6 2.6 0.00 0.03 0.00 66 1011.0
20260507053657 46 221 2.6 4.3 0.00 0.03 0.00 65 1011.0
20260507051851 46 179 3.5 3.5 0.00 0.03 0.00 62 1011.0
20260507051258 46 237 2.6 2.6 0.00 0.03 0.00 61 1011.0
20260507051249 46 237 2.6 2.6 0.00 0.03 0.00 61 1011.0
20260507044841 46 213 2.6 2.6 0.00 0.03 0.00 59 1011.0
20260507044239 46 197 3.5 3.5 0.00 0.03 0.00 59 1011.0
20260507043635 46 213 1.7 4.3 0.00 0.03 0.00 58 1011.0
20260507043035 46 181 3.5 4.3 0.00 0.03 0.00 58 1011.0
20260507042435 46 194 2.6 3.5 0.00 0.03 0.00 57 1011.0
20260507041835 46 174 3.5 3.5 0.00 0.03 0.00 57 1010.0
20260507041237 46 176 2.6 2.6 0.00 0.03 0.00 57 1010.0
20260507040637 46 215 1.7 2.6 0.00 0.03 0.00 58 1010.0
20260507040035 46 196 2.6 4.3 0.00 0.03 0.00 59 1010.0
20260507035428 46 191 3.5 3.5 0.00 0.03 0.00 60 1010.0
20260507034225 46 165 4.3 4.3 0.00 0.03 0.00 65 1010.0
20260507033623 46 205 4.3 4.3 0.00 0.03 0.00 67 1010.0
20260507033020 45 220 2.6 4.3 0.00 0.03 0.00 68 1010.0
20260507032418 45 143 4.3 4.3 0.00 0.03 0.00 67 1010.0
20260507031919 45 203 3.5 3.5 0.00 0.03 0.00 63 1010.0
20260507031816 45 203 3.5 3.5 0.00 0.03 0.00 63 1010.0
20260507031212 44 200 0.0 0.0 0.00 0.03 0.00 59 1010.0
20260507024759 45 200 0.0 0.0 0.00 0.03 0.00 57 1010.0
20260507023555 45 222 1.7 2.6 0.00 0.03 0.00 55 1010.0
20260507022954 45 208 1.7 1.7 0.00 0.03 0.00 54 1010.0
20260507022351 45 208 0.0 1.7 0.00 0.03 0.00 53 1010.0
20260507021746 45 206 0.0 1.7 0.00 0.03 0.00 52 1010.0
20260507021143 45 257 0.0 1.7 0.00 0.03 0.00 50 1010.0
20260507020540 45 195 0.0 0.0 0.00 0.03 0.00 49 1010.0
20260507015937 45 195 0.0 0.0 0.00 0.03 0.00 49 1010.0
20260507015337 45 194 0.0 0.0 0.00 0.03 0.00 49 1009.0
20260507014143 46 195 0.0 0.0 0.00 0.03 0.00 48 1009.0
20260507014134 46 195 0.0 0.0 0.00 0.03 0.00 48 1009.0
20260507012331 47 195 0.0 1.7 0.00 0.03 0.00 47 1009.0
20260507011731 47 193 1.7 1.7 0.00 0.03 0.00 47 1009.0
20260507011132 47 194 1.7 3.5 0.00 0.03 0.00 47 1009.0
20260507010531 47 185 2.6 3.5 0.00 0.03 0.00 47 1009.0
20260507005331 47 188 2.6 3.5 0.00 0.03 0.00 48 1009.0
20260507004733 47 200 2.6 2.6 0.00 0.03 0.00 48 1009.0
20260507004131 47 189 3.5 3.5 0.00 0.03 0.00 48 1009.0
20260507001737 47 201 2.6 2.6 0.00 0.03 0.00 47 1009.0
20260507001731 47 201 2.6 2.6 0.00 0.03 0.00 47 1009.0
20260507001131 47 188 2.6 2.6 0.00 0.03 0.00 48 1009.0
20260507000530 47 184 3.5 3.5 0.00 0.03 0.00 49 1009.0
20260506235928 47 194 3.5 3.5 0.00 0.03 0.00 50 1009.0
20260506235327 47 192 2.6 2.6 0.00 0.03 0.00 51 1009.0
20260506234725 47 188 2.6 3.5 0.00 0.03 0.00 52 1009.0
20260506234121 47 208 2.6 2.6 0.00 0.03 0.00 53 1009.0
20260506233515 47 189 2.6 2.6 0.00 0.03 0.00 53 1009.0
20260506232913 47 191 2.6 3.5 0.00 0.03 0.00 55 1009.0
20260506231708 46 157 2.6 2.6 0.00 0.03 0.00 57 1009.0
20260506231104 46 185 2.6 2.6 0.00 0.03 0.00 55 1009.0
20260506230500 46 193 0.0 0.0 0.00 0.03 0.00 55 1009.0
20260506225855 46 192 1.7 2.6 0.00 0.03 0.00 54 1009.0
20260506225253 46 191 2.6 2.6 0.00 0.03 0.00 54 1009.0
20260506222843 47 193 2.6 3.5 0.00 0.03 0.00 52 1009.0
20260506222242 47 183 1.7 1.7 0.00 0.03 0.00 50 1009.0
20260506221637 47 183 1.7 2.6 0.00 0.03 0.00 50 1009.0
20260506215823 48 193 0.0 1.7 0.00 0.11 0.00 50 1009.0
20260506214614 48 188 4.3 4.3 0.00 0.11 0.00 50 1009.0
20260506214024 47 196 2.6 4.3 0.00 0.11 0.00 51 1009.0
20260506214012 47 196 2.6 4.3 0.00 0.11 0.00 51 1009.0
20260506212807 47 177 2.6 2.6 0.00 0.11 0.00 53 1009.0
20260506212206 47 171 3.5 3.5 0.00 0.11 0.00 53 1009.0
20260506211604 47 222 2.6 4.3 0.00 0.11 0.00 53 1009.0
20260506210958 47 195 4.3 4.3 0.00 0.11 0.00 53 1009.0
20260506210356 47 193 1.7 4.3 0.00 0.11 0.00 53 1009.0
20260506205752 47 201 4.3 4.3 0.00 0.11 0.00 52 1009.0
20260506203952 47 197 3.5 4.3 0.00 0.11 0.00 53 1009.0
20260506202149 47 184 3.5 4.3 0.00 0.11 0.00 56 1009.0
20260506200950 47 149 3.5 3.5 0.00 0.11 0.00 56 1009.0
20260506200350 47 216 3.5 3.5 0.00 0.11 0.00 56 1009.0
20260506195750 47 204 2.6 2.6 0.00 0.11 0.00 55 1009.0
20260506195150 47 221 2.6 2.6 0.00 0.11 0.00 54 1009.0
20260506194549 47 187 3.5 3.5 0.00 0.11 0.00 54 1009.0
20260506193948 47 228 2.6 4.3 0.00 0.11 0.00 53 1009.0
20260506193345 48 164 3.5 3.5 0.00 0.11 0.00 53 1009.0
20260506192744 48 193 3.5 5.2 0.00 0.11 0.00 53 1009.0
20260506192140 48 221 4.3 4.3 0.00 0.11 0.00 54 1008.0
20260506191539 48 191 4.3 4.3 0.00 0.11 0.00 53 1008.0
20260506190332 48 222 2.6 4.3 0.00 0.11 0.00 54 1008.0
20260506185728 48 174 3.5 4.3 0.00 0.11 0.00 54 1008.0
20260506185125 48 231 2.6 3.5 0.00 0.11 0.00 54 1008.0
20260506184522 48 198 2.6 2.6 0.00 0.11 0.00 54 1008.0
20260506183919 48 189 3.5 3.5 0.00 0.11 0.00 54 1008.0
20260506183318 48 195 3.5 4.3 0.00 0.11 0.00 54 1008.0
20260506182714 48 171 3.5 3.5 0.00 0.11 0.00 54 1008.0
20260506182113 48 220 3.5 3.5 0.00 0.11 0.00 53 1008.0
20260506175108 48 223 2.6 4.3 0.00 0.11 0.00 50 1007.0
20260506173259 48 179 2.6 2.6 0.00 0.11 0.00 50 1007.0
20260506172655 48 192 4.3 5.2 0.00 0.11 0.00 49 1007.0
20260506170854 49 244 4.3 4.3 0.00 0.11 0.00 50 1007.0
20260506170254 49 238 2.6 6.1 0.00 0.11 0.00 50 1007.0
20260506165653 49 225 2.6 2.6 0.00 0.11 0.00 49 1007.0
20260506163854 50 263 0.0 1.7 0.00 0.11 0.00 54 1007.0
20260506162654 49 224 2.6 3.5 0.00 0.11 0.00 55 1007.0
20260506160850 48 197 3.5 4.3 0.00 0.11 0.00 53 1007.0
20260506160250 48 243 4.3 4.3 0.00 0.11 0.00 52 1007.0
20260506155646 48 192 3.5 3.5 0.00 0.11 0.00 51 1007.0
20260506152639 48 157 4.3 4.3 0.00 0.11 0.00 53 1007.0
20260506145620 48 215 5.2 5.2 0.00 0.11 0.00 53 1007.0
20260506145051 48 198 5.2 6.1 0.00 0.11 0.00 50 1006.0
20260506145017 48 198 5.2 6.1 0.00 0.11 0.00 50 1006.0
20260506143816 49 212 4.3 8.7 0.00 0.11 0.00 47 1005.0
20260506143212 50 188 7.0 7.8 0.00 0.11 0.00 43 1005.0
20260506142021 58 213 2.6 2.6 0.00 0.11 0.00 35 1004.0
20260506141403 58 207 0.0 4.3 0.00 0.11 0.00 33 1004.0
20260506140159 59 206 4.3 4.3 0.00 0.11 0.00 29 1004.0
20260506133150 58 98 1.7 2.6 0.00 0.11 0.00 51 1004.0
20260506131348 54 98 0.0 0.0 0.00 0.11 0.00 45 1004.0
20260506130148 53 98 0.0 3.5 0.00 0.11 0.00 41 1005.0
20260506124950 53 211 1.7 1.7 0.00 0.11 0.00 40 1005.0
20260506124349 54 211 0.0 0.0 0.00 0.11 0.00 36 1005.0
20260506123750 54 211 2.6 2.6 0.00 0.11 0.00 35 1005.0
20260506123146 55 211 2.6 2.6 0.00 0.11 0.00 35 1005.0
20260506120735 58 281 0.0 0.0 0.00 0.11 0.00 28 1004.0
20260506120133 58 281 0.0 0.0 0.00 0.11 0.00 30 1004.0
20260506114930 59 281 0.0 0.0 0.00 0.11 0.00 30 1004.0
20260506113725 60 281 0.0 0.0 0.00 0.11 0.00 29 1004.0